[[{"header":{"parameterUnit":"m.s-1","parameterCategory":1,"la1":30.2991,"la2":30.254,"lo1":-89.0895,"lo2":-89.0444,"dy":0.0017,"dx":0.0017,"nx":28,"ny":28,"refTime":"2024-12-04T03:00:00:Z","depth":0,"parameterNumber":2,"parameterNumberName":"U-component_of_WINDS"},"data":[0,0,0,0,0,0,0,0,0,0,0,0,0,0,0,0,0,0,0,0,0,0,0,0,0,0,0,0,0,0,0,0,0,0,0,0,0,0,0,0,0,0,0,0,0,0,0,0,0,0,0,0,0,0,0,0,0,0,-3.2598,-3.2599,0,-3.2671,-3.2672,-3.2673,-3.2573,-3.257,-3.2566,-3.2563,-3.2638,-3.2643,-3.2648,0,0,0,0,0,0,0,0,0,0,0,0,0,-3.2372,-3.2377,-3.2598,-3.2599,-3.26,-3.2671,-3.2672,-3.2673,-3.2574,-3.257,-3.2565,-3.2561,-3.2636,-3.2642,-3.2649,0,0,0,0,0,0,0,0,0,0,0,0,0,-3.246,-3.2378,-3.2598,-3.2559,-3.2557,-3.2671,-3.2672,-3.2673,-3.2575,-3.257,-3.2564,-3.2559,-3.2634,-3.2642,-3.2649,-3.2805,0,0,-3.2674,-3.2677,0,0,0,0,0,0,0,0,-3.2455,-3.2469,-3.2564,-3.2562,-3.2559,-3.2608,-3.2619,-3.2718,-3.2576,-3.2568,-3.2563,-3.2557,-3.2632,-3.264,-3.2665,-3.2809,-3.2812,-3.2674,-3.2679,-3.2683,-3.2685,0,0,0,0,0,0,0,-3.2449,-3.2465,-3.2627,-3.2566,-3.2563,-3.2538,-3.2544,-3.2638,-3.2629,-3.2568,-3.2561,-3.2571,-3.263,-3.2658,-3.2666,-3.2813,-3.2674,-3.2681,-3.2686,-3.2689,-3.3086,-3.3092,0,0,0,0,0,0,-3.2448,-3.246,-3.2625,-3.2629,-3.2493,-3.2546,-3.2554,-3.2598,-3.2628,-3.2627,-3.2576,-3.2566,-3.2647,-3.2657,-3.2668,-3.2852,-3.2683,-3.269,-3.2695,-3.3081,-3.3087,-3.3094,0,0,0,0,0,0,-3.2443,-3.2464,-3.2622,-3.2543,-3.2561,-3.2556,-3.2606,-3.2602,-3.263,-3.2633,-3.2631,-3.2606,-3.2643,-3.2657,-3.2772,-3.2853,-3.2694,-3.2701,-3.3074,-3.3083,-3.3091,-3.322,0,0,0,0,0,0,-3.2437,-3.2463,-3.2522,-3.2545,-3.2566,-3.2725,-3.2611,-3.2607,-3.2644,-3.2632,-3.2661,-3.2661,-3.264,-3.276,-3.278,-3.2861,-3.2707,-3.3066,-3.3078,-3.3088,-3.3209,-3.3232,-3.3253,0,0,0,0,0,-3.243,-3.2556,-3.2526,-3.2546,-3.264,-3.273,-3.2741,-3.2714,-3.2651,-3.271,-3.2712,-3.266,-3.2841,-3.2773,-3.2794,-3.2879,-3.3061,-3.3074,-3.3087,-3.3199,-3.3228,-3.3252,0,0,0,0,0,0,-3.2544,-3.2559,-3.2525,-3.2663,-3.2696,-3.2713,-3.2787,-3.2746,-3.2798,-3.2785,-3.2749,-3.2756,-3.2878,-3.289,-3.2814,-3.303,-3.294,-3.2958,-3.3018,-3.3046,-3.3067,-3.3062,-3.2714,0,0,0,0,0,-3.2585,-3.2656,-3.2665,-3.2786,-3.2804,-3.2793,-3.2831,-3.2807,-3.284,-3.2853,-3.2863,-3.2897,-3.2961,-3.3004,-3.3063,-3.321,-3.3214,-3.3278,-3.33,-3.3318,-3.3334,-3.3411,-3.3439,-3.3136,-3.3136,-3.3136,0,0,-3.2671,-3.2687,-3.2735,-3.2809,-3.2832,-3.2906,-3.2805,-3.2889,-3.2943,-3.2866,-3.2974,-3.2983,-3.3017,-3.3148,-3.3206,-3.3162,-3.3418,-3.3335,-3.3349,-3.3355,-3.3427,-3.3456,-3.3481,-3.3145,-3.3144,-3.3142,0,0,-3.2864,-3.2885,-3.2987,-3.3012,-3.3047,-3.3038,-3.3063,-3.3086,-3.3089,-3.3197,-3.314,-3.3204,-3.3315,-3.3342,-3.337,-3.3573,-3.3526,-3.3593,-3.3707,-3.3782,-3.3806,-3.3827,-3.3898,-3.3924,-3.3608,-3.3609,-3.3609,0,-3.2967,-3.3076,-3.3045,-3.3132,-3.3165,-3.3098,-3.3201,-3.3226,-3.3279,-3.3304,-3.3253,-3.339,-3.3409,-3.3544,-3.3593,-3.3619,-3.3645,-3.3589,-3.3805,-3.3826,-3.3845,-3.3912,-3.3939,-3.3617,-3.3616,-3.3615,-3.3614,0,-3.3199,-3.3276,-3.3354,-3.3407,-3.3449,-3.3544,-3.3526,-3.3573,-3.3545,-3.3542,-3.3652,-3.3672,-3.3733,-3.3763,-3.3738,-3.3895,-3.3866,-3.3811,-3.372,-3.3882,-3.3945,-3.397,-3.3628,-3.3625,-3.3623,-3.3621,0,0,-3.3468,-3.35,-3.353,-3.3552,-3.3585,-3.3644,-3.3734,-3.3794,-3.3834,-3.3873,-3.3947,-3.4042,-3.3991,-3.4023,-3.4,-3.4066,-3.4223,-3.4002,-3.4002,-3.4042,-3.4396,-3.4436,-3.4467,-3.4192,-3.4197,-3.4201,-3.4392,0,-3.366,-3.3817,-3.3791,-3.3943,-3.4012,-3.3949,-3.4028,-3.4056,-3.4055,-3.4114,-3.4113,-3.418,-3.4108,-3.4127,-3.419,-3.4191,-3.4294,-3.4177,-3.426,-3.4264,-3.4253,-3.45,-3.4543,-3.4723,-3.4417,-3.4421,-3.4424,0,-3.3906,-3.3953,-3.4112,-3.4133,-3.4161,-3.4232,-3.4284,-3.4341,-3.4372,-3.4366,-3.4402,-3.4365,-3.4455,-3.4362,-3.4484,-3.4405,-3.4438,-3.4444,-3.445,-3.4456,-3.4353,-3.4512,-3.478,-3.4806,-3.4462,-3.4459,-3.4457,0,-3.4085,-3.4188,-3.4295,-3.4316,-3.4344,-3.4395,-3.4409,-3.4434,-3.4471,-3.4516,-3.454,-3.4595,-3.4625,-3.4668,-3.4647,-3.4583,-3.4773,-3.4679,-3.477,-3.4771,-3.4812,-3.481,-3.5089,-3.4835,-3.4835,-3.4834,-3.4834,0,-3.4302,-3.4402,-3.4375,-3.4442,-3.4551,-3.4519,-3.4627,-3.4633,-3.4656,-3.4722,-3.4671,-3.4733,-3.4702,-3.4763,-3.4747,-3.4849,-3.4864,-3.4861,-3.4855,-3.4865,-3.4865,-3.4885,-3.4872,-3.4842,-3.484,-3.4839,-3.4837,0,-3.452,-3.4507,-3.4619,-3.4636,-3.4642,-3.4722,-3.4735,-3.4796,-3.4791,-3.4875,-3.4892,-3.4884,-3.4952,-3.4936,-3.501,-3.4999,-3.5128,-3.5107,-3.5118,-3.5112,-3.5203,-3.5195,-3.5504,-3.5542,-3.5266,-3.5268,-3.5271,0,-3.4659,-3.4734,-3.4758,-3.4798,-3.4815,-3.4881,-3.4918,-3.489,-3.493,-3.497,-3.5026,-3.509,-3.5139,-3.525,-3.5251,-3.5307,-3.5286,-3.5391,-3.5294,-3.5301,-3.5286,-3.5282,-3.5288,-3.541,-3.5413,-3.5416,-3.5418,0,-3.4907,-3.4897,-3.4952,-3.5006,-3.5051,-3.5092,-3.5128,-3.5164,-3.5138,-3.5186,-3.5254,-3.5293,-3.5368,-3.5431,-3.5482,-3.5495,-3.5453,-3.5448,-3.5472,-3.5482,-3.5484,-3.5483,-3.5169,-3.5441,-3.5439,-3.5437,-3.5436,-3.5435,-3.5089,-3.5152,-3.5178,-3.5241,-3.5265,-3.5299,-3.5357,-3.5359,-3.5416,-3.5475,-3.5454,-3.5532,-3.5559,-3.5624,-3.5643,-3.5703,-3.5664,-3.5699,-3.5707,-3.5716,-3.5727,-3.5476,-3.5713,-3.5712,-3.5712,-3.5711,-3.5711,0,-3.5333,-3.5347,-3.5405,-3.5456,-3.5506,-3.5461,-3.5498,-3.5542,-3.5611,-3.564,-3.5689,-3.5767,-3.5828,-3.5833,-3.5889,-3.5937,-3.5918,-3.5952,-3.5948,-3.5951,-3.5759,-3.5733,-3.5966,-3.5966,-3.5966,-3.5966,-3.5966,-3.5966,-3.5466,-3.5569,-3.5562,-3.5676,-3.5688,-3.5764,-3.5789,-3.582,-3.5842,-3.5932,-3.5982,-3.5984,-3.6003,-3.6061,-3.6114,-3.6113,-3.6136,-3.6178,-3.617,-3.5991,-3.5965,-3.5941,-3.5915,-3.6183,-3.6184,-3.6357,-3.6358,-3.6359]},{"header":{"parameterUnit":"m.s-1","parameterCategory":1,"la1":30.2991,"la2":30.254,"lo1":-89.0895,"lo2":-89.0444,"dy":0.0017,"dx":0.0017,"nx":28,"ny":28,"refTime":"2024-12-04T03:00:00:Z","depth":0,"parameterNumber":3,"parameterNumberName":"V-component_of_WINDS"},"data":[0,0,0,0,0,0,0,0,0,0,0,0,0,0,0,0,0,0,0,0,0,0,0,0,0,0,0,0,0,0,0,0,0,0,0,0,0,0,0,0,0,0,0,0,0,0,0,0,0,0,0,0,0,0,0,0,0,0,-3.2838,-3.2839,0,-3.2892,-3.2892,-3.2893,-3.2844,-3.2842,-3.284,-3.2839,-3.289,-3.2893,-3.2896,0,0,0,0,0,0,0,0,0,0,0,0,0,-3.2691,-3.2694,-3.2838,-3.2839,-3.284,-3.2892,-3.2892,-3.2893,-3.2845,-3.2842,-3.284,-3.2838,-3.2889,-3.2893,-3.2896,0,0,0,0,0,0,0,0,0,0,0,0,0,-3.275,-3.2695,-3.2838,-3.2822,-3.2821,-3.2891,-3.2892,-3.2893,-3.2845,-3.2842,-3.2839,-3.2837,-3.2888,-3.2892,-3.2897,-3.2985,0,0,-3.2912,-3.2914,0,0,0,0,0,0,0,0,-3.2747,-3.2756,-3.2824,-3.2823,-3.2822,-3.2858,-3.2859,-3.2924,-3.2846,-3.2836,-3.2838,-3.2835,-3.2882,-3.2887,-3.2903,-3.2988,-3.299,-3.2912,-3.2915,-3.2917,-3.2918,0,0,0,0,0,0,0,-3.2743,-3.2753,-3.2859,-3.2825,-3.2824,-3.281,-3.2816,-3.2871,-3.2874,-3.2837,-3.2833,-3.284,-3.2881,-3.2899,-3.2904,-3.2991,-3.2912,-3.2916,-3.2919,-3.2921,-3.3148,-3.3151,0,0,0,0,0,0,-3.2741,-3.275,-3.2858,-3.2861,-3.2777,-3.2816,-3.2821,-3.285,-3.2874,-3.2875,-3.2843,-3.2838,-3.2892,-3.2898,-3.2905,-3.3009,-3.2917,-3.2921,-3.2924,-3.3145,-3.3149,-3.3152,0,0,0,0,0,0,-3.2738,-3.2751,-3.2855,-3.2805,-3.2817,-3.2821,-3.2853,-3.2852,-3.287,-3.2878,-3.2878,-3.2861,-3.289,-3.2899,-3.2965,-3.301,-3.2924,-3.2928,-3.3141,-3.3146,-3.315,-3.3218,0,0,0,0,0,0,-3.2734,-3.275,-3.2785,-3.2806,-3.282,-3.2916,-3.2856,-3.2855,-3.2879,-3.2873,-3.2895,-3.2896,-3.2888,-3.2959,-3.297,-3.3015,-3.2932,-3.3137,-3.3143,-3.3149,-3.3212,-3.3224,-3.3235,0,0,0,0,0,-3.2729,-3.2802,-3.2787,-3.28,-3.2864,-3.2919,-3.2927,-3.2917,-3.2883,-3.2917,-3.2922,-3.2895,-3.3004,-3.2966,-3.2979,-3.3026,-3.3134,-3.3142,-3.3148,-3.3206,-3.3222,-3.3235,0,0,0,0,0,0,-3.2785,-3.2804,-3.2788,-3.287,-3.2893,-3.2911,-3.2954,-3.2934,-3.2967,-3.296,-3.2945,-3.295,-3.3021,-3.303,-3.2988,-3.3111,-3.3063,-3.3073,-3.3103,-3.3118,-3.3129,-3.3125,-3.2936,0,0,0,0,0,-3.2808,-3.2852,-3.2866,-3.2937,-3.2949,-3.295,-3.2973,-3.2964,-3.2987,-3.2996,-3.3006,-3.3028,-3.3067,-3.3093,-3.3129,-3.3213,-3.3216,-3.3251,-3.3263,-3.3272,-3.3281,-3.3324,-3.334,-3.3175,-3.3175,-3.3175,0,0,-3.2854,-3.2869,-3.2898,-3.2948,-3.2965,-3.301,-3.2958,-3.3008,-3.3041,-3.3003,-3.3067,-3.3075,-3.3098,-3.3174,-3.3207,-3.3184,-3.3327,-3.3282,-3.3289,-3.3293,-3.3333,-3.3349,-3.3362,-3.318,-3.3179,-3.3179,0,0,-3.296,-3.2977,-3.3038,-3.3055,-3.3082,-3.3081,-3.3096,-3.3116,-3.312,-3.3184,-3.3156,-3.3193,-3.3261,-3.3279,-3.3297,-3.3408,-3.3385,-3.342,-3.3482,-3.3524,-3.3537,-3.3548,-3.3587,-3.3601,-3.3429,-3.3429,-3.3429,0,-3.3014,-3.3082,-3.3071,-3.3123,-3.3145,-3.3113,-3.3173,-3.319,-3.3227,-3.3242,-3.3215,-3.3298,-3.3312,-3.339,-3.3417,-3.3433,-3.3448,-3.3418,-3.3536,-3.3547,-3.3558,-3.3594,-3.3609,-3.3433,-3.3433,-3.3432,-3.3432,0,-3.3145,-3.3193,-3.3238,-3.3275,-3.3302,-3.3357,-3.3353,-3.3382,-3.3369,-3.3371,-3.3435,-3.3451,-3.3489,-3.3507,-3.3495,-3.3583,-3.3567,-3.3538,-3.349,-3.3578,-3.3612,-3.3626,-3.3439,-3.3438,-3.3436,-3.3435,0,0,-3.329,-3.3319,-3.3336,-3.3351,-3.3377,-3.3413,-3.3466,-3.3504,-3.3528,-3.3554,-3.3597,-3.3654,-3.3628,-3.3648,-3.3638,-3.3675,-3.376,-3.3641,-3.3641,-3.3662,-3.3856,-3.3877,-3.3894,-3.3745,-3.3748,-3.375,-3.3854,0,-3.3396,-3.349,-3.3481,-3.357,-3.3612,-3.3582,-3.3628,-3.3648,-3.3651,-3.3686,-3.3689,-3.3729,-3.3692,-3.3703,-3.3739,-3.3743,-3.3799,-3.3735,-3.3784,-3.3785,-3.3778,-3.3912,-3.3934,-3.4032,-3.3867,-3.3869,-3.3871,0,-3.3534,-3.3565,-3.3658,-3.3676,-3.3693,-3.3735,-3.3768,-3.3803,-3.3824,-3.3824,-3.3846,-3.3829,-3.388,-3.3831,-3.3901,-3.3858,-3.3877,-3.3881,-3.3885,-3.3888,-3.3833,-3.3918,-3.4063,-3.4077,-3.3892,-3.389,-3.3889,0,-3.3628,-3.3693,-3.3757,-3.3771,-3.3794,-3.3824,-3.3835,-3.3853,-3.3876,-3.3905,-3.3919,-3.3953,-3.3971,-3.3997,-3.3989,-3.3954,-3.406,-3.4011,-3.406,-3.406,-3.4083,-3.4082,-3.4233,-3.4097,-3.4097,-3.4097,-3.4096,0,-3.3748,-3.3806,-3.3799,-3.3839,-3.3902,-3.389,-3.3952,-3.3959,-3.3975,-3.4014,-3.399,-3.4026,-3.4013,-3.4049,-3.4042,-3.4101,-3.4109,-3.4109,-3.4106,-3.4111,-3.4111,-3.4123,-3.4115,-3.4101,-3.41,-3.4099,-3.4098,0,-3.3864,-3.3863,-3.393,-3.3946,-3.3951,-3.3997,-3.401,-3.4046,-3.4046,-3.4095,-3.4106,-3.4106,-3.4146,-3.4141,-3.4186,-3.4181,-3.4253,-3.4243,-3.4246,-3.4244,-3.4293,-3.4288,-3.4456,-3.4477,-3.4329,-3.433,-3.4332,0,-3.3941,-3.3984,-3.4005,-3.403,-3.4043,-3.4082,-3.4105,-3.4095,-3.412,-3.4146,-3.4179,-3.4217,-3.4246,-3.4312,-3.4315,-3.4349,-3.4338,-3.4395,-3.4343,-3.4346,-3.4338,-3.4335,-3.4339,-3.4405,-3.4406,-3.4408,-3.4409,0,-3.4076,-3.4072,-3.4107,-3.4142,-3.417,-3.4197,-3.422,-3.4241,-3.4232,-3.4261,-3.4302,-3.4326,-3.4371,-3.4408,-3.444,-3.4449,-3.4427,-3.4425,-3.4438,-3.4443,-3.4443,-3.4442,-3.4273,-3.4421,-3.442,-3.4419,-3.4419,-3.4418,-3.4173,-3.421,-3.423,-3.427,-3.4286,-3.4309,-3.4343,-3.4348,-3.4382,-3.4419,-3.441,-3.4456,-3.4474,-3.4514,-3.4526,-3.4561,-3.454,-3.4559,-3.4564,-3.4569,-3.4574,-3.4438,-3.4567,-3.4566,-3.4566,-3.4566,-3.4565,0,-3.4306,-3.4317,-3.4354,-3.4388,-3.4418,-3.4396,-3.442,-3.4447,-3.4488,-3.4507,-3.4537,-3.4583,-3.4619,-3.4625,-3.4659,-3.4686,-3.4676,-3.4695,-3.4692,-3.4694,-3.4591,-3.4576,-3.4701,-3.4701,-3.4701,-3.4701,-3.4701,-3.4701,-3.4379,-3.444,-3.4439,-3.4507,-3.4517,-3.4563,-3.4578,-3.4598,-3.4613,-3.4667,-3.4696,-3.47,-3.4714,-3.4748,-3.4779,-3.478,-3.4793,-3.4815,-3.4812,-3.4715,-3.4702,-3.4689,-3.4675,-3.4818,-3.4818,-3.4912,-3.4913,-3.4913]}]]